EHI
0 0 0 0 0 0 0 0 0 0 0 0 0 0 0 0 0 0 0 0 0 0 0 0 0 0 0 0 0 0 0 0 0 0 0 0 0 0 0 0 0 0 0
0 0 0 0 0 0 0 0 0 0 0 0 0 0 0 0 0 0 0 0 0 0 0 0 0 0 0 0 0 0 0 0 0 0 0 0 0 0 0 0 0 0 0
0 0 0 0 0 0 0 0 0 0 0 0 0 0 0 0 0 0 0 0 0 0 0 0 0 0 0 0 0 0 0 0 0 0 0 0 0 0 0 0 0 0 0
0 0 0 0 0 0 0 0 0 0 0 0 0 0 0 0 0 0 0 0 0 0 0 0 0 0 0 0 0 0 0 0 0 0 0 0 0 0 0 0 0 0 0
0 0 0 0 0 0 0 0 0 0 0 0 0 0 0 0 0 0 0 0 0 0 0 0 0 0 0 0 0 0 0 0 0 0 0 0 0 0 0 0 0 0 0
0 0 0 0 0 0 0 0 0 0 0 0 0 0 0 0 0 0 0 0 0 0 0 0 0 0 0 0 0 0 0 0 0 0 0 0 0 0 0 0 0 0 0
0 0 0 0 0 0 0 0 0 0 0 0 0 0 0 0 0 0 0 0 0 0 0 0 0 0 0 0 0 0 0 0 0 0 0 0 0 0 0 0 0 0 0
0 0 0 0 0 0 0 0 0 0 0 0 0 0 0 0 0 0 0 0 0 0 0 0 0 0 0 0 0 0 0 0 0 0 0 0 0 0 0 0 0 0 0
0 0 0 0 0 0 0 0 0 0 0 0 0 0 0 0 0 0 0 0 0 0 0 0 0 0 0 0 0 0 0 0 0 0 0 0 0 0 0 0 0 0 0
0 0 0 0 0 0 0 0 0 0 0 0 0 0 0 0 0 0 0 0 0 0 0 0 0 0 0 0 0 0 0 0 0 0 0 0 0 0 0 0 0 0 0
0 0 0 0 0 0 0 0 0 0 0 0 0 0 0 0 0 0 0 0 0 0 0 0 0 0 0 0 0 0 0 0 0 0 0 0 0 0 0 0 0 0 0
0 0 0 0 0 0 0 0 0 0 0 0 0 0 0 0 0 0 0 0 0 0 0 0 0 0 0 0 0 0 0 0 0 0 0 0 0 0 0 0 0 0 0
0 0 0 0 0 0 0 0 0 0 0 0 0 0 0 0 0 0 0 0 0 0 0 0 0 0 0 0 0 0 0 0 0 0 0 0 0 0 0 0 0 0 0
0 0 0 0 0 0 0 0 0 0 0 0 0 0 0 0 0 0 0 0 0 0 0 0 0 0 0 0 0 0 0 0 0 0 0 0 0 0 0 0 0 0 0
0 0 0 0 0 0 0 0 0 0 0 0 0 0 0 0 0 0 0 0 0 0 0 0 0 0 0 0 0 0 0 0 0 0 0 0 0 0 0 0 0 0 0
0 0 0 0 0 0 0 0 0 0 0 0 0 0 0 0 0 0 0 0 0 0 0 0 0 0 0 0 0 0 0 0 0 0 0 0 0 0 0 0 0 0 0
0 0 0 0 0 0 0 0 0 0 0 0 0 0 0 0 0 0 0 0 0 0 0 0 0 0 0 0 0 0 0 0 0 0 0 0 0 0 0 0 0 0 0
0 0 0 0 0 0 0 0 0 0 0 0 0 0 0 0 0 0 0 0 0 0 0 0 0 0 0 0 0 0 0 0 0 0 0 0 0 0 0 0 0 0 0
0 0 0 0 0 0 0 0 0 0 0 0 0 0 0 0 0 0 0 0 0 0 0 0 0 0 0 0 0 0 0 0 0 0 0 0 0 0 0 0 0 0 0
0 0 0 0 0 0 0 0 0 0 0 0 0 0 0 0 0 0 0 0 0 0 0 0 0 0 0 0 0 0 0 0 0 0 0 0 0 0 0 0 0 0 0
0 0 0 0 0 0 0 0 0 0 0 0 0 0 0 0 0 0 0 0 0 0 0 0 0 0 0 0 0 0 0 0 0 0 0 0 0 0 0 0 0 0 0
0 0 0 0 0 0 0 0 0 0 0 0 0 0 0 0 0 0 0 0 0 0 0 0 0 0 0 0 0 0 0 0 0 0 0 0 0 0 0 0 0 0 0
0 0 0 0 0 0 0 0 0 0 0 0 0 0 0 0 0 0 0 0 0 0 0 0 0 0 0 0 0 0 0 0 0 0 0 0 0 0 0 0 0 0 0
0 0 0 0 0 0 0 0 0 0 0 0 0 0 0 0 0 0 0 0 0 0 0 0 0 0 0 0 0 0 0 0 0 0 0 0 0 0 0 0 0 0 0
0 0 0 0 0 0 0 0 0 0 0 0 0 0 0 0 0 0 0 0 0 0 0 0 0 0 0 0 0 0 0 0 0 0 0 0 0 0 0 0 0 0 0
0 0 0 0 0 0 0 0 0 0 0 0 0 0 0 0 0 0 0 0 0 0 0 0 0 0 0 0 0 0 0 0 0 0 0 0 0 0 0 0 0 0 0
Wind_Speed
6 7 7 8 8 9 9 10 10 11 12 12 13 13 14 14 14 14 15 16 16 16 16 17 18 18 14 13 13 13 14 14 18 20 15 14 17 16 14 15 15 16 15
7 8 8 9 9 10 10 11 12 12 13 13 14 14 15 15 15 16 17 17 17 18 18 18 19 15 18 15 14 15 14 15 16 22 18 14 17 16 15 16 14 13 14
7 8 9 10 10 11 12 12 13 13 14 14 15 15 15 15 16 17 17 18 18 18 18 18 18 18 18 15 16 15 13 13 14 17 19 14 13 12 13 15 16 15 15
8 9 10 11 11 12 13 13 14 14 15 16 16 16 16 15 15 16 16 17 18 18 18 18 18 18 18 18 16 16 15 14 14 15 16 14 12 12 11 12 13 12 13
9 10 10 11 12 12 13 14 15 15 15 16 16 17 16 14 12 13 13 16 17 18 18 18 18 21 24 21 16 14 13 13 13 14 14 14 12 10 11 10 12 12 13
10 11 11 12 12 13 14 15 15 16 16 16 16 17 17 13 19 24 22 18 17 17 17 17 18 20 22 26 28 27 22 16 14 14 14 15 15 13 12 11 11 11 11
11 12 12 12 13 14 15 16 16 17 17 17 17 17 18 18 23 25 26 20 18 17 17 16 14 14 20 16 19 24 24 27 26 17 16 16 16 14 12 14 13 13 14
12 12 13 13 14 15 16 16 17 16 16 16 17 18 18 18 23 25 25 20 17 17 17 17 17 17 16 16 14 14 15 16 18 15 13 14 15 13 12 13 13 13 13
13 13 13 14 15 16 17 17 17 16 16 16 16 18 18 19 22 24 24 15 14 16 16 16 17 17 21 25 18 15 16 14 18 23 24 22 24 25 19 10 11 10 11
13 14 14 15 15 16 17 18 16 16 16 16 16 17 18 18 21 24 24 12 13 13 13 14 19 20 23 25 17 15 16 14 13 13 15 17 16 17 21 13 9 10 9
14 14 15 15 16 16 17 16 16 16 16 16 17 16 16 18 20 22 23 13 12 13 12 11 12 21 25 26 23 16 18 18 13 12 11 10 10 9 10 10 8 9 10
14 15 15 16 14 13 16 16 16 16 16 16 15 16 13 14 17 19 23 23 21 15 13 12 13 23 25 26 21 20 24 21 11 9 9 9 8 8 7 8 9 9 9
15 16 16 16 15 14 15 16 15 13 12 13 13 13 13 12 14 21 23 24 25 17 13 20 24 26 24 18 19 22 19 11 9 9 9 8 8 7 6 6 6 7 8
16 16 15 15 15 14 12 12 12 12 12 13 13 14 14 13 12 12 12 14 17 15 13 17 22 22 17 16 15 12 8 8 8 8 8 8 7 6 6 6 6 6 7
16 15 15 14 14 14 13 11 13 13 14 16 14 13 14 14 16 24 20 14 13 13 15 11 10 9 9 8 8 8 7 7 8 7 7 7 7 6 6 5 5 6 6
14 14 12 11 12 12 13 13 15 18 23 24 24 21 17 20 26 27 26 25 24 23 15 9 9 9 9 9 9 8 7 7 7 7 7 7 6 6 6 5 5 6 7
14 14 12 12 12 12 12 13 14 15 18 21 22 23 22 24 25 25 24 23 21 18 10 8 9 9 8 8 8 8 8 7 6 6 6 6 6 5 5 5 6 6 6
14 14 13 12 12 12 12 13 13 14 15 13 15 20 22 22 23 23 21 18 11 10 8 8 8 8 8 8 8 7 7 7 6 6 6 6 5 5 5 6 6 7 6
13 11 11 12 12 12 12 13 13 14 14 14 13 14 18 19 20 18 16 9 9 9 8 8 8 8 8 8 7 7 7 7 7 6 6 6 5 5 5 6 6 8 8
11 15 15 13 12 12 12 12 13 13 13 13 12 12 12 13 11 11 9 8 8 8 8 8 8 8 8 8 7 7 7 7 7 6 6 5 5 5 6 6 6 6 6
11 12 17 14 11 12 12 12 12 12 12 12 12 14 19 13 11 11 10 9 8 9 9 9 8 8 8 7 7 8 8 7 6 6 6 5 5 5 5 5 5 5 5
11 11 11 12 12 12 12 12 12 12 13 14 12 13 18 12 10 10 9 9 8 8 8 8 8 8 7 7 7 8 8 7 6 6 6 5 5 5 5 5 5 5 6
12 13 12 12 12 15 14 12 12 12 13 13 13 12 11 10 10 10 10 9 9 8 8 8 8 8 7 7 7 7 7 7 7 7 6 6 5 5 5 6 7 7 7
12 13 13 12 12 12 12 12 12 12 13 13 12 11 11 10 10 11 10 9 9 9 8 8 8 10 12 10 7 7 7 8 8 7 8 8 7 6 6 6 7 8 8
12 12 12 12 12 12 12 13 12 12 12 12 12 11 11 11 11 10 10 9 10 10 10 10 8 9 11 12 11 9 12 14 13 10 7 7 8 8 8 8 8 8 9
12 12 12 11 11 12 12 12 12 13 12 12 11 11 11 11 10 10 10 9 9 9 10 9 10 11 12 11 12 14 15 16 15 15 10 7 8 8 9 8 10 10 10
Wind_Direction
333 326 319 318 315 309 304 303 303 300 298 295 294 292 290 288 286 281 277 277 275 274 271 268 267 266 265 262 258 255 252 251 261 271 269 268 264 258 254 253 255 255 254
327 320 317 315 312 308 306 306 304 300 298 296 294 291 289 288 286 284 283 282 279 277 276 275 273 272 267 265 261 258 256 253 257 268 273 271 267 263 258 256 255 255 255
323 318 316 314 313 310 309 307 304 301 298 296 293 291 290 289 287 285 285 285 282 280 279 277 275 273 270 267 265 262 260 259 256 262 270 270 268 263 260 255 254 254 256
317 314 312 313 313 310 308 305 303 301 299 297 295 292 290 288 285 284 285 284 283 281 279 276 273 271 269 269 267 265 264 262 260 260 265 267 264 260 254 253 252 248 249
312 309 308 309 309 306 305 303 302 300 297 296 294 292 291 288 281 280 280 279 278 278 276 273 270 269 267 267 264 261 257 257 258 258 261 262 259 252 245 243 248 251 249
306 305 307 306 306 305 304 304 302 300 299 297 295 293 292 288 289 291 291 288 285 282 281 279 276 274 273 272 272 270 266 261 258 257 260 259 260 254 248 241 241 243 248
303 303 304 305 304 304 304 303 302 302 300 299 296 295 293 293 295 295 295 293 289 285 284 283 280 278 279 274 275 276 276 274 269 264 262 261 262 256 251 244 237 236 241
301 303 305 306 304 304 304 303 303 303 301 299 298 297 296 296 298 299 300 296 289 286 284 283 283 282 279 277 272 268 266 266 266 268 262 263 264 262 251 246 247 245 247
302 305 307 306 304 303 303 303 305 303 301 300 299 298 297 298 299 301 301 296 289 287 285 283 282 281 281 282 278 272 271 267 267 265 262 262 261 258 250 242 235 236 240
306 306 306 305 303 302 302 303 303 301 300 301 298 297 297 297 300 301 302 295 292 290 288 285 283 283 284 285 281 277 275 273 270 268 265 266 266 266 263 250 235 234 235
306 303 302 302 301 301 301 301 302 302 300 300 299 298 298 297 299 300 302 300 295 293 290 288 285 287 287 287 285 279 276 278 274 268 265 261 254 247 246 243 230 230 234
305 302 301 302 302 301 301 302 303 303 302 302 302 302 300 300 300 302 303 303 303 300 296 292 290 292 292 291 289 282 284 284 276 270 264 261 258 252 243 235 227 225 228
304 302 302 303 302 301 302 303 303 302 300 302 302 301 302 303 303 305 306 306 305 302 295 295 296 297 297 294 290 289 289 282 274 269 266 265 261 255 247 235 224 223 227
303 303 304 304 303 303 301 299 299 300 300 300 300 301 303 304 306 308 307 307 305 302 299 297 298 296 293 289 290 290 285 276 273 272 271 268 267 256 245 239 234 223 224
302 302 303 303 302 303 301 298 297 292 292 298 299 300 302 304 305 310 311 309 307 303 306 300 298 299 297 297 296 293 289 285 280 273 272 269 263 253 248 236 227 219 219
302 303 303 303 301 301 301 300 292 289 295 297 296 297 298 300 307 310 313 314 314 313 312 304 304 305 305 304 303 299 294 288 285 280 273 269 262 254 248 233 222 221 221
298 299 301 300 300 301 302 302 303 302 299 300 300 302 303 306 310 312 314 315 313 314 309 305 306 307 307 305 303 299 298 296 292 283 276 270 263 256 250 236 224 222 222
296 296 296 296 298 298 298 299 300 303 307 306 305 306 308 310 313 313 315 317 312 314 308 306 306 306 306 306 305 303 301 298 292 285 279 273 265 258 251 242 232 227 226
296 294 296 297 296 296 296 297 297 298 300 303 305 307 312 314 312 311 315 312 309 309 308 306 306 306 305 305 304 302 299 296 294 289 282 275 268 260 253 247 240 233 230
293 293 296 296 296 296 296 297 297 298 300 302 303 308 314 313 310 312 313 309 306 305 305 305 305 305 304 302 302 301 299 297 295 288 285 279 271 264 258 252 247 240 233
296 296 296 295 293 294 295 296 297 298 300 301 301 303 309 309 306 305 306 305 304 303 302 302 302 303 302 302 301 299 297 295 295 294 290 283 276 268 262 257 252 248 244
295 293 294 294 294 295 296 296 297 297 298 299 300 303 308 305 299 298 300 301 300 298 297 297 297 297 297 298 299 298 296 295 295 294 289 283 276 269 263 257 252 247 241
293 292 293 294 295 297 298 296 296 296 297 298 299 300 301 300 298 298 299 299 298 296 295 293 292 293 295 294 291 289 289 292 294 294 289 283 274 267 261 256 251 247 243
293 293 296 297 297 297 297 297 297 296 297 297 297 297 298 298 297 297 297 296 295 294 292 291 288 290 293 293 289 285 282 285 286 279 273 270 269 266 261 256 253 250 247
296 296 298 298 297 297 297 296 296 297 297 297 296 296 297 297 297 296 296 294 294 291 293 292 288 288 290 291 289 285 285 286 284 280 270 263 261 258 257 256 253 252 248
297 297 296 296 295 296 296 295 296 298 297 296 296 296 296 296 296 295 295 293 293 293 292 290 287 289 290 288 285 286 287 287 285 282 276 265 260 258 255 254 254 253 252